Regional Weather Roundup
Issued by NWS Little Rock, AR

Home | Current Version | Previous Version | Graphics & Text | Print | Product List | Glossary On
Versions: 1 2 3 4 5 6 7 8 9 10 11 12 13 14 15 16 17 18 19 20 21 22 23 24 25 26 27 28 29 30 31 32 33 34 35 36 37 38 39 40 41 42 43 44 45 46 47 48 49 50
000
ASUS44 KLZK 272005
RWRLZK

WEATHER ROUNDUP FOR ARKANSAS
NATIONAL WEATHER SERVICE LITTLE ROCK AR
300 PM CDT SUN JUL 27 2014

NOTE: "FAIR" INDICATES FEW OR NO CLOUDS BELOW 12,000 FEET WITH NO
SIGNIFICANT WEATHER AND/OR OBSTRUCTIONS TO VISIBILITY.

ARZ001-003-010-029-272100-
NORTHWEST ARKANSAS

CITY           SKY/WX    TMP DP  RH WIND       PRES   REMARKS
FAYETTEVILLE   PTSUNNY   90  73  57 NW6       30.03S HX  98
FORT SMITH     PTSUNNY   97  74  47 VRB7      29.97S HX 108
HARRISON       CLOUDY    87  74  64 W6        30.02F HX  95
BENTONVILLE    PTSUNNY   90  72  55 N9        30.06R HX  96
ROGERS         PTSUNNY   90  70  51 N8        30.05S HX  95
SILOAM SPGS    PTSUNNY   90  72  55 N10       30.05R HX  96
HIGHFILL       PTSUNNY   92  74  55 NW7       30.04S HX 101
SPRINGDALE     PTSUNNY   90  72  55 NW12      30.06S HX  96
$$

ARZ004-005-016-272100-
NORTH CENTRAL ARKANSAS

CITY           SKY/WX    TMP DP  RH WIND       PRES   REMARKS
BATESVILLE     CLOUDY    91  75  59 NW9       29.95S HX 102
FLIPPIN        CLOUDY    91  73  55 NW7       29.98F HX 100
MTN HOME       CLOUDY    89  75  63 VRB5      29.97F HX  99
$$

ARZ040-041-272100-
WEST CENTRAL ARKANSAS

CITY           SKY/WX    TMP DP  RH WIND       PRES   REMARKS
MENA           MOSUNNY   95  77  55 CALM      30.03S HX 109
MOUNT IDA      MOSUNNY   93  76  57 VRB6      29.98F HX 105
$$

ARZ009-017-025-026-028-272100-
NORTHEAST ARKANSAS

CITY           SKY/WX    TMP DP  RH WIND       PRES   REMARKS
CORNING        LGT RAIN  91  77  62 W10       29.91F HX 105
JONESBORO      CLOUDY    90  78  68 W10G20    29.92F HX 104
NEWPORT        CLOUDY    91  78  65 W8        29.95S HX 105
WALNUT RIDGE   PTSUNNY   93  75  55 W8        29.90F HX 104
BLYTHEVILLE    PTSUNNY   91  78  65 W14G20    29.92S HX 106
$$

ARZ022-023-033-042-044-272100-
CENTRAL ARKANSAS

CITY           SKY/WX    TMP DP  RH WIND       PRES   REMARKS
LITTLE ROCK    PTSUNNY   95  74  50 W12G20    29.96F HX 105
N LITTLE ROCK  PTSUNNY   94  79  63 SW8       29.96F HX 111
JACKSONVILLE   MOSUNNY   95  77  56 W7        29.96F HX 110
SEARCY         MOSUNNY   94  77  57 SW10      29.96F HX 108
HOT SPRINGS    MOSUNNY   94  75  54 SW8       29.99F HX 105
RUSSELLVILLE   PTSUNNY   94  77  57 W7        29.96F HX 108
CLINTON        FAIR      95  79  59 NW6       29.96S HX 112
$$

ARZ036-272100-
EAST ARKANSAS

CITY           SKY/WX    TMP DP  RH WIND       PRES   REMARKS
WEST MEMPHIS   CLOUDY    89  79  72 SW6       29.94S HX 104
$$

ARZ050-053-066-070-073-272100-
SOUTHWEST ARKANSAS

CITY           SKY/WX    TMP DP  RH WIND       PRES   REMARKS
ARKADELPHIA    FAIR      95  77  55 W7        29.98F HX 109
CAMDEN         SUNNY     95  73  49 W9        29.98F HX 105
TEXARKANA      SUNNY     94  72  48 SW10      30.00F HX 102
EL DORADO      SUNNY     93  74  53 SW8       30.01F HX 103
DE QUEEN       SUNNY     93  77  59 W10       29.98S HX 107
$$

ARZ056-057-069-272100-
SOUTHEAST ARKANSAS

CITY           SKY/WX    TMP DP  RH WIND       PRES   REMARKS
PINE BLUFF     MOSUNNY   93  75  55 SW12      29.98F HX 104
STUTTGART      MOSUNNY   95  79  59 SW9       29.98S HX 112
MONTICELLO     MOSUNNY   94  73  50 SW6       29.99F HX 103

$$




USA.gov is the U.S. government's official web portal to all federal, state and local government web resources and services.